Flag for U.S.A. Weather past 2 weeks in Leawood, Kansas, U.S.A.

Now
72 °F

Clear.


Feels Like: 69 °F
Forecast: 74 / 88 °F
Wind: 10 mph from Southwest

Location: Johnson County Executive Airport

Current Time: Jul 6, 2015 at 7:13:28 AM

Latest Report: Jul 6, 2015 at 5:53 AM


Visibility: 10 mi

Pressure: 29.86 "Hg

Humidity: 91%

Dew point: 69 °F

Location of LeawoodLocation

Historic Weather in Leawood — Graph

°F

Leawood temperature yesterday

Maximum temperature yesterday: 87 °F (at 3:53 PM)
Minimum temperature yesterday: 66 °F (at 5:53 AM)
Average temperature yesterday: 77 °F

Past Weeks' High & Low Weather Summary

 TemperatureHumidityPressure
High95 °F (Jun 25, 3:53 PM)100% (Jun 26, 2:53 AM)30.18 "Hg (Jun 26, 2:53 AM)
Low62 °F (Jul 4, 3:53 AM)37% (Jun 28, 4:53 PM)29.74 "Hg (Jul 1, 8:53 PM)
Average76 °F73%29.92 "Hg
* Reported Jun 21 5:53 AM — Jul 6 5:53 AM, Leawood, Weather by CustomWeather, © 2015

Note: Actual official high and low records may vary slightly from our data, if they occured in-between our weather recording intervals... More about our weather records

Advertising

Leawood weather history for previous 24 hours

 ConditionsComfort  
Time TempWeatherWind HumidityBarometerVisibility
5:53 AM
Mon, Jul 6
72 °FClear.10 mph91%29.86 "Hg10 mi
4:53 AM72 °FClear.10 mph87%29.86 "Hg10 mi
3:53 AM72 °FClear.12 mph91%29.88 "Hg10 mi
2:53 AM72 °FClear.10 mph87%29.87 "Hg10 mi
1:53 AM73 °FClear.9 mph84%29.89 "Hg10 mi
12:53 AM74 °FClear.9 mph79%29.88 "Hg10 mi
11:53 PM
Sun, Jul 5
76 °FPassing clouds.7 mph74%29.88 "Hg10 mi
10:53 PM77 °FClear.13 mph77%29.86 "Hg10 mi
9:53 PM80 °FClear.17 mph74%29.88 "Hg10 mi
8:53 PM82 °FSunny.12 mph77%29.86 "Hg10 mi
7:53 PM84 °FSunny.13 mph72%29.86 "Hg10 mi
6:53 PM86 °FPassing clouds.13 mph67%29.85 "Hg10 mi
5:53 PM87 °FSunny.15 mph65%29.86 "Hg10 mi
4:53 PM87 °FPassing clouds.12 mph67%29.88 "Hg10 mi
3:53 PM87 °FScattered clouds.16 mph65%29.89 "Hg10 mi
2:53 PM86 °FPassing clouds.13 mph67%29.90 "Hg10 mi
1:53 PM84 °FSunny.13 mph70%29.92 "Hg10 mi
12:53 PM82 °FSunny.13 mph74%29.93 "Hg10 mi
11:53 AM81 °FSunny.9 mph77%29.95 "Hg10 mi
10:53 AM80 °FSunny.14 mph71%29.95 "Hg10 mi
9:53 AM80 °FSunny.10 mph74%29.96 "Hg10 mi
8:53 AM75 °FSunny.8 mph88%29.97 "Hg7 mi
7:53 AM70 °FFog.7 mph90%29.96 "Hg5 mi
Weather by CustomWeather, © 2015

See weather overviewHow to use our weather pages